DMSP 5D-2 F11 DEB, 28330

Orbit data source: Space-Track

DMSP 5D-2 F11 DEB, 28330 is space debris in SSO originally from a launch on Thu, 28 Nov 1991 UTC launched from the Air Force Western Test Range (AFWTR). Debris objects in space refer to the collection of defunct objects orbiting the Earth. Examples of debris include non-operational satellites, rocket bodies, and fragments generated from explosions, collisions, or faulty payload assembly.

Loading next visibility...
Identifier
28330, 1991-082AT
Orbit
SSO
Country
Flag of USUS
Related business
Manufacturer
Unknown
Mission
Spacecraft
Bus & Motor
Unknown
Mass
Unknown
Launch date (UTC)
1991-11-28 (35 years ago)
Launch vehicle
Unknown
Launch site
Air Force Western Test Range (AFWTR)
Object type
Payload
Rocket body
Debris
Shape & HBR
Unknown shape, 0.1 m
Radar Cross Section
Medium (>0.1 m² and <1 m²)

Expand to show TLE details & history
Last TLE update: 1 day ago

TLE from 1 day ago
0 DMSP 5D-2 F11 DEB
1 28330U 91082AT  26263.45681280  .00003072  00000-0  96664-3 0  9995
2 28330  98.9293 345.6192 0069371 206.9647 152.7929 14.39813149154051
Epoch: 2026-09-20T10:57Z
TLE epoch observation values (Epoch: 2026-09-20T10:57:48.625Z)
Latitude
-0.00003°
Longitude
-178.18413°
Altitude
806.164 km
Speed
7.427 km/s
True Right ascension
23h 02m 28s
True Declination
0° 00' 00"
Sunlit
Object was in full shadow at epoch
Visualization orbit readout
Latitude
Unknown
Longitude
Unknown
Altitude
Unknown
Speed
Unknown
Apparent Right ascension
Unknown
Apparent Declination
Unknown
Sunlit
N/A
Visualization observer readout
Local Sidereal Time
06:00:25
Azimuth
Unknown
Elevation
Unknown
Doppler factor
Unknown
Orbital elements
Apogee altitude
805.751 km
Perigee altitude
706.767 km
Semi-major axis
7,134.396 km
Eccentricity
0.00694
Inclination
98.9293°
RAAN
345.6192°
Arg. of periapsis
206.9647°
True anomaly
153.15357°
Mean anomaly
152.7929°
Eccentric anomaly
152.97351°
Mean motion
3.6017 °/min
Orbital period
99.95 mins
BSTAR
0.00096664

Documentation

Showing up to 5 results
|